Location: Eyeline Observatory
(43.2182°N, 78.8632°W)
Time: 19:37:41
(UTC-04:00)

Vanguard 2 - Pass Details

Date: 01 February 2018
Orbit: 553 x 2939 km, 32.9° (Epoch: 27 May)

Event Time Altitude Azimuth Distance (km) Brightness Sun altitude
Rises 05:00:11 0° 262° (W) 3,702 - -27.7°
Reaches altitude 10° 05:02:53 10° 249° (WSW) 3,029 - -27.2°
Exits shadow 05:07:18 25° 213° (SSW) 2,526 9.8 -26.4°
Maximum altitude 05:09:05 27° 196° (SSW) 2,607 10.0 -26.0°
Drops below altitude 10° 05:18:06 10° 146° (SE) 4,529 11.9 -24.4°
Sets 05:23:17 0° 136° (SE) 5,946 12.7 -23.4°
